OPS 4682 DEB

基本信息
目录编号:
19954
目录名称:
OPS 4682 DEB
国际标识:
1965-027AZ
轨道中心:
EARTH
物体状态:
在轨
发射日期:
1965-04-03 UTC
轨道信息
数据来源: 国际轨道数据
星历时间: 2026-09-12T02:23:11+0800
半长轴: 7619.681km
偏心率: 0.0029565
轨道倾角: 90.376°
近地点辐角: 274.742°
升交点赤经: 82.080°
平近点角: 100.044°
近地点: 1219.016km
远地点: 1264.072km
周期: 110.323分钟
每日圈数: 13.052618
详细信息
发射场:
AFWTR
轨道高度:
LEO
数据来源:
AOE Integration Group
参考系:
TEME
时间系统:
UTC
历元类型:
SGP4
2D轨道图
3D轨道图
轨道高度分析图
轨道倾角分析图
轨道综合分析图
查看轨道综合分析图